{"data":{"norad_id":68380,"intl_designator":"2026-063A","name":"STARLINK-36296","alt_names":[],"object_type":"PAYLOAD","status":"ACTIVE","operator":null,"country":"US","launch_date":"2026-03-26","launch_site_code":"AFWTR","launch_vehicle":null,"mission":null,"orbit_class":"UNKNOWN","rcs_meters":null,"size_class":null,"mass_kg":null,"dimensions":null,"purposes":["comms"],"wikipedia_slug":null,"has_3d_model":false,"image_url":null,"decayed_at":null,"tle_current":{"epoch":"2026-09-19T09:25:17.379264Z","epoch_age_seconds":144159,"freshness":"FRESH","line1":"1 68380U 26063A   26262.39256226  .00016016  00000+0  49797-3 0  9997","line2":"2 68380  97.2876  46.2430 0000400 188.1931 171.9305 15.33407383 27776","mean_motion":15.33407383,"eccentricity":4.0e-5,"inclination_deg":97.2876,"raan_deg":46.243,"arg_perigee_deg":188.1931,"mean_anomaly_deg":171.9305,"bstar":0.00049797,"rev_number":2777,"period_min":93.90850833017,"perigee_km":465.38134680839,"apogee_km":465.92885017627,"semimajor_km":6843.7920984923,"source":"CELESTRAK","updated_at":"2026-09-20T09:00:43.891770Z"}}}